Location: Peterborough
(44.3091°N, 78.3197°W)
Time: 04:12:26
(UTC-04:00)

Tiros 1 despin weight - Pass Details

Date: 31 March 2023
Orbit: 586 x 632 km, 48.2° (Epoch: 08 June)

Event Time Altitude Azimuth Distance (km) Brightness Sun altitude
Rises 19:53:48 0° 237° (WSW) 2,801 ? -3.4°
Reaches altitude 10° 19:56:05 10° 235° (SW) 1,901 ? -3.8°
Maximum altitude 20:00:24 68° 153° (SSE) 631 ? -4.6°
Drops below altitude 10° 20:04:45 10° 70° (ENE) 1,913 ? -5.4°
Enters shadow 20:06:27 - 68° (ENE) 2,581 ? -5.6°
Sets 20:07:03 0° 68° (ENE) 2,820 - -5.8°
